| time (UTC) | temp C | wind direction | speed KPH | gust KPH | rain 1hr cm | rain 24hr cm | rain mn cm | humidity % | barometer mb |
| 20260502214008 | 10 | 109 | 0.0 | 0.0 | 0.00 | 0.18 | 0.18 | 87 | 1009.9 |
| 20260502213505 | 10 | 106 | 0.0 | 0.0 | 0.00 | 0.18 | 0.18 | 87 | 1009.9 |
| 20260502213019 | 10 | 360 | 0.0 | 0.0 | 0.00 | 0.18 | 0.18 | 89 | 1010.0 |
| 20260502212508 | 10 | 360 | 0.0 | 0.0 | 0.00 | 0.18 | 0.18 | 89 | 1010.0 |
| 20260502212007 | 9 | 360 | 0.0 | 0.0 | 0.00 | 0.18 | 0.18 | 89 | 1009.9 |
| 20260502211532 | 9 | 323 | 0.0 | 0.0 | 0.03 | 0.18 | 0.18 | 89 | 1010.0 |
| 20260502211012 | 9 | 224 | 0.0 | 0.0 | 0.03 | 0.18 | 0.18 | 89 | 1010.0 |
| 20260502210507 | 9 | 224 | 0.0 | 0.0 | 0.05 | 0.18 | 0.18 | 90 | 1010.0 |
| 20260502210023 | 8 | 224 | 0.0 | 0.0 | 0.05 | 0.18 | 0.18 | 89 | 1010.0 |
| 20260502205511 | 8 | 224 | 0.0 | 0.0 | 0.05 | 0.18 | 0.18 | 89 | 1010.0 |
| 20260502205011 | 9 | 222 | 0.0 | 0.0 | 0.05 | 0.18 | 0.18 | 90 | 1010.2 |
| 20260502204510 | 9 | 222 | 0.0 | 3.2 | 0.05 | 0.18 | 0.18 | 90 | 1010.1 |
| 20260502204005 | 8 | 223 | 0.0 | 3.2 | 0.05 | 0.18 | 0.18 | 89 | 1010.1 |
| 20260502203506 | 8 | 223 | 0.0 | 3.2 | 0.05 | 0.18 | 0.18 | 89 | 1010.1 |
| 20260502203018 | 8 | 222 | 0.0 | 4.8 | 0.05 | 0.18 | 0.18 | 89 | 1010.2 |
| 20260502202504 | 8 | 290 | 0.0 | 6.4 | 0.05 | 0.18 | 0.18 | 88 | 1010.2 |
| 20260502202007 | 8 | 286 | 0.0 | 6.4 | 0.05 | 0.18 | 0.18 | 87 | 1010.2 |
| 20260502201519 | 8 | 279 | 1.6 | 12.9 | 0.03 | 0.15 | 0.15 | 86 | 1010.2 |
| 20260502201010 | 8 | 236 | 3.2 | 14.5 | 0.03 | 0.15 | 0.15 | 82 | 1010.3 |
| 20260502200507 | 10 | 254 | 6.4 | 16.1 | 0.00 | 0.13 | 0.13 | 79 | 1010.4 |
| 20260502200025 | 11 | 290 | 9.7 | 16.1 | 0.00 | 0.13 | 0.13 | 73 | 1010.4 |
| 20260502195509 | 12 | 273 | 9.7 | 16.1 | 0.00 | 0.13 | 0.13 | 69 | 1010.2 |
| 20260502195008 | 12 | 233 | 3.2 | 6.4 | 0.00 | 0.13 | 0.13 | 68 | 1010.0 |
| 20260502194524 | 12 | 216 | 3.2 | 6.4 | 0.00 | 0.13 | 0.13 | 67 | 1009.9 |
| 20260502194007 | 12 | 222 | 1.6 | 8.0 | 0.00 | 0.13 | 0.13 | 67 | 1009.9 |
| 20260502193504 | 12 | 255 | 1.6 | 8.0 | 0.00 | 0.13 | 0.13 | 68 | 1009.9 |
| 20260502193014 | 12 | 205 | 4.8 | 8.0 | 0.00 | 0.13 | 0.13 | 66 | 1010.0 |
| 20260502192507 | 12 | 232 | 1.6 | 6.4 | 0.00 | 0.13 | 0.13 | 68 | 1010.0 |
| 20260502192008 | 13 | 163 | 1.6 | 6.4 | 0.00 | 0.13 | 0.13 | 66 | 1010.2 |
| 20260502191522 | 13 | 157 | 3.2 | 6.4 | 0.00 | 0.13 | 0.13 | 62 | 1010.2 |
| 20260502191009 | 13 | 213 | 1.6 | 6.4 | 0.00 | 0.13 | 0.13 | 66 | 1010.2 |
| 20260502190509 | 13 | 169 | 1.6 | 11.3 | 0.00 | 0.13 | 0.13 | 67 | 1010.3 |
| 20260502190023 | 12 | 255 | 3.2 | 11.3 | 0.00 | 0.13 | 0.13 | 66 | 1010.3 |
| 20260502185512 | 12 | 167 | 1.6 | 6.4 | 0.00 | 0.13 | 0.13 | 66 | 1010.3 |
| 20260502185008 | 12 | 196 | 3.2 | 4.8 | 0.00 | 0.13 | 0.13 | 67 | 1010.3 |
| 20260502184525 | 12 | 12 | 0.0 | 4.8 | 0.00 | 0.13 | 0.13 | 64 | 1010.3 |
| 20260502184007 | 13 | 55 | 0.0 | 9.7 | 0.00 | 0.13 | 0.13 | 63 | 1010.4 |
| 20260502183509 | 12 | 179 | 1.6 | 9.7 | 0.00 | 0.13 | 0.13 | 65 | 1010.4 |
| 20260502183028 | 12 | 170 | 3.2 | 9.7 | 0.00 | 0.13 | 0.13 | 65 | 1010.4 |
| 20260502182509 | 12 | 136 | 4.8 | 12.9 | 0.00 | 0.13 | 0.13 | 62 | 1010.3 |
| 20260502182011 | 12 | 80 | 3.2 | 14.5 | 0.00 | 0.13 | 0.13 | 62 | 1010.3 |
| 20260502181519 | 13 | 116 | 4.8 | 14.5 | 0.00 | 0.13 | 0.13 | 63 | 1010.3 |
| 20260502181005 | 12 | 238 | 3.2 | 12.9 | 0.00 | 0.13 | 0.13 | 67 | 1010.3 |
| 20260502180505 | 12 | 184 | 4.8 | 14.5 | 0.00 | 0.13 | 0.13 | 65 | 1010.4 |
| 20260502170504 | 12 | 284 | 1.6 | 9.7 | 0.00 | 0.13 | 0.13 | 66 | 1011.1 |
| 20260502164001 | 11 | 205 | 0.0 | 4.8 | 0.00 | 0.13 | 0.13 | 74 | 1011.2 |
| 20260502163501 | 11 | 228 | 1.6 | 4.8 | 0.00 | 0.13 | 0.13 | 75 | 1011.1 |
| 20260502163005 | 11 | 232 | 0.0 | 4.8 | 0.00 | 0.13 | 0.13 | 78 | 1011.2 |
| 20260502162500 | 11 | 269 | 1.6 | 3.2 | 0.00 | 0.13 | 0.13 | 81 | 1011.3 |
| 20260502162002 | 11 | 173 | 0.0 | 3.2 | 0.00 | 0.13 | 0.13 | 78 | 1011.3 |
| 20260502161506 | 11 | 163 | 0.0 | 3.2 | 0.00 | 0.13 | 0.13 | 79 | 1011.4 |
| 20260502161001 | 11 | 82 | 0.0 | 3.2 | 0.00 | 0.13 | 0.13 | 80 | 1011.4 |
| 20260502160503 | 11 | 52 | 0.0 | 3.2 | 0.00 | 0.13 | 0.13 | 81 | 1011.4 |
| 20260502152002 | 10 | 138 | 1.6 | 4.8 | 0.00 | 0.13 | 0.13 | 83 | 1012.1 |
| 20260502151505 | 10 | 92 | 0.0 | 8.0 | 0.00 | 0.13 | 0.13 | 87 | 1011.7 |
| 20260502151002 | 10 | 177 | 3.2 | 8.0 | 0.00 | 0.13 | 0.13 | 87 | 1011.8 |
| 20260502150502 | 10 | 352 | 1.6 | 4.8 | 0.00 | 0.13 | 0.13 | 87 | 1011.9 |
| 20260502130505 | 7 | 205 | 0.0 | 0.0 | 0.10 | 0.10 | 0.10 | 90 | 1012.6 |
| 20260502123505 | 7 | 239 | 0.0 | 0.0 | 0.03 | 0.03 | 0.03 | 88 | 1013.0 |
| 20260502123018 | 7 | 239 | 0.0 | 0.0 | 0.00 | 0.00 | 0.00 | 87 | 1013.0 |
| 20260502122508 | 8 | 255 | 0.0 | 4.8 | 0.00 | 0.00 | 0.00 | 87 | 1012.9 |
| 20260502122006 | 8 | 240 | 0.0 | 6.4 | 0.00 | 0.00 | 0.00 | 86 | 1012.9 |
| 20260502121512 | 8 | 240 | 1.6 | 6.4 | 0.00 | 0.00 | 0.00 | 86 | 1012.8 |
| 20260502121007 | 8 | 236 | 3.2 | 6.4 | 0.00 | 0.00 | 0.00 | 87 | 1012.9 |
| 20260502120504 | 8 | 283 | 3.2 | 4.8 | 0.00 | 0.00 | 0.00 | 87 | 1012.9 |
| 20260502115507 | 8 | 197 | 0.0 | 3.2 | 0.00 | 0.00 | 0.00 | 88 | 1012.4 |
| 20260502115004 | 7 | 240 | 1.6 | 3.2 | 0.00 | 0.00 | 0.00 | 88 | 1012.3 |
| 20260502114512 | 7 | 281 | 1.6 | 3.2 | 0.00 | 0.00 | 0.00 | 88 | 1012.2 |
| 20260502114004 | 7 | 292 | 0.0 | 3.2 | 0.00 | 0.00 | 0.00 | 87 | 1012.0 |
| 20260502113506 | 7 | 272 | 1.6 | 3.2 | 0.00 | 0.00 | 0.00 | 88 | 1011.8 |
| 20260502113017 | 7 | 309 | 1.6 | 3.2 | 0.00 | 0.00 | 0.00 | 88 | 1011.8 |
| 20260502112504 | 7 | 196 | 0.0 | 3.2 | 0.00 | 0.00 | 0.00 | 88 | 1011.8 |
| 20260502112004 | 7 | 196 | 0.0 | 1.6 | 0.00 | 0.00 | 0.00 | 87 | 1012.0 |
| 20260502111512 | 7 | 196 | 0.0 | 0.0 | 0.00 | 0.00 | 0.00 | 86 | 1012.1 |
| 20260502111004 | -17 | 0.0 | 0.0 | 0.00 | 0.00 | 0.00 | 1012.3 | ||
| 20260502110507 | -17 | 0.0 | 0.0 | 0.00 | 0.00 | 0.00 | 1012.3 | ||
| 20260502110008 | -17 | 0.0 | 0.0 | 0.00 | 0.00 | 0.00 | 1012.0 | ||
| 20260502105507 | -17 | 0.0 | 0.0 | 0.00 | 0.00 | 0.00 | 1012.0 | ||
| 20260502105003 | -17 | 0.0 | 0.0 | 0.00 | 0.00 | 0.00 | 1011.9 | ||
| 20260502104534 | -17 | 0.0 | 0.0 | 0.00 | 0.00 | 0.00 | 1011.7 | ||
| 20260502104004 | -17 | 0.0 | 0.0 | 0.00 | 0.00 | 0.00 | 1011.6 | ||
| 20260502103504 | -17 | 0.0 | 0.0 | 0.00 | 0.00 | 0.00 | 1011.7 | ||
| 20260502103014 | -17 | 0.0 | 0.0 | 0.00 | 0.00 | 0.00 | 1011.6 | ||
| 20260502102502 | -17 | 0.0 | 0.0 | 0.00 | 0.00 | 0.00 | 1011.5 | ||
| 20260502102008 | -17 | 0.0 | 0.0 | 0.00 | 0.00 | 0.00 | 1011.4 | ||
| 20260502101516 | -17 | 0.0 | 0.0 | 0.00 | 0.00 | 0.00 | 1011.3 | ||
| 20260502101007 | -17 | 0.0 | 0.0 | 0.00 | 0.00 | 0.00 | 1011.4 | ||
| 20260502100507 | -17 | 0.0 | 0.0 | 0.00 | 0.00 | 0.00 | 1011.4 | ||
| 20260502091524 | -17 | 0.0 | 0.0 | 0.00 | 0.00 | 0.00 | 1011.3 | ||
| 20260502091009 | -17 | 0.0 | 0.0 | 0.00 | 0.00 | 0.00 | 1011.5 | ||
| 20260502090504 | -17 | 0.0 | 0.0 | 0.00 | 0.00 | 0.00 | 1011.3 | ||
| 20260502071004 | 8 | 13 | 0.0 | 3.2 | 0.00 | 0.00 | 0.00 | 73 | 1011.2 |
| 20260502070507 | 8 | 281 | 0.0 | 3.2 | 0.00 | 0.00 | 0.00 | 72 | 1011.3 |
| 20260502070026 | 8 | 227 | 0.0 | 1.6 | 0.00 | 0.00 | 0.00 | 71 | 1011.3 |
| 20260502065501 | 8 | 221 | 0.0 | 0.0 | 0.00 | 0.00 | 0.00 | 72 | 1011.4 |
| 20260502065001 | 8 | 240 | 0.0 | 0.0 | 0.00 | 0.00 | 0.00 | 71 | 1011.3 |
| 20260502064510 | 9 | 158 | 0.0 | 0.0 | 0.00 | 0.00 | 0.00 | 72 | 1011.4 |
| 20260502064004 | 9 | 195 | 0.0 | 0.0 | 0.00 | 0.00 | 0.00 | 71 | 1011.6 |
| 20260502063504 | 9 | 195 | 0.0 | 0.0 | 0.00 | 0.00 | 0.00 | 72 | 1011.7 |
| 20260502063013 | 9 | 90 | 0.0 | 3.2 | 0.00 | 0.00 | 0.00 | 71 | 1011.5 |
| 20260502062503 | 9 | 178 | 0.0 | 3.2 | 0.00 | 0.00 | 0.00 | 70 | 1011.6 |
| 20260502062006 | 9 | 237 | 0.0 | 4.8 | 0.00 | 0.00 | 0.00 | 69 | 1011.6 |
| 20260502061515 | 9 | 237 | 0.0 | 4.8 | 0.00 | 0.00 | 0.00 | 69 | 1011.7 |
| 20260502061003 | 9 | 233 | 1.6 | 4.8 | 0.00 | 0.00 | 0.00 | 68 | 1011.7 |
| 20260502060507 | 9 | 242 | 0.0 | 3.2 | 0.00 | 0.00 | 0.00 | 68 | 1011.6 |
| 20260502060020 | 9 | 201 | 1.6 | 3.2 | 0.00 | 0.00 | 0.00 | 67 | 1011.6 |
| 20260502055504 | 9 | 163 | 0.0 | 0.0 | 0.00 | 0.00 | 0.00 | 66 | 1011.5 |
| 20260502055010 | 9 | 163 | 0.0 | 0.0 | 0.00 | 0.00 | 0.00 | 66 | 1011.6 |
| 20260502054522 | 9 | 163 | 0.0 | 3.2 | 0.00 | 0.00 | 0.00 | 66 | 1011.6 |
| 20260502054003 | 9 | 163 | 0.0 | 3.2 | 0.00 | 0.00 | 0.00 | 66 | 1011.6 |
| 20260502053503 | 9 | 157 | 0.0 | 3.2 | 0.00 | 0.00 | 0.00 | 64 | 1011.5 |
| 20260502053008 | 9 | 157 | 0.0 | 1.6 | 0.00 | 0.00 | 0.00 | 66 | 1011.6 |
| 20260502052503 | 9 | 156 | 0.0 | 3.2 | 0.00 | 0.00 | 0.00 | 64 | 1011.6 |
| 20260502052002 | 9 | 156 | 0.0 | 3.2 | 0.00 | 0.00 | 0.00 | 64 | 1011.6 |
| 20260502051529 | 9 | 156 | 0.0 | 3.2 | 0.00 | 0.00 | 0.00 | 63 | 1011.7 |
| 20260502051003 | 9 | 156 | 0.0 | 3.2 | 0.00 | 0.00 | 0.00 | 64 | 1011.7 |
| 20260502050503 | 10 | 157 | 0.0 | 3.2 | 0.00 | 0.00 | 0.00 | 64 | 1011.8 |
| 20260502050016 | 10 | 157 | 0.0 | 3.2 | 0.00 | 0.00 | 0.00 | 62 | 1011.7 |
| 20260502045504 | 10 | 157 | 0.0 | 3.2 | 0.00 | 0.00 | 0.00 | 62 | 1011.7 |
| 20260502045007 | 10 | 157 | 0.0 | 3.2 | 0.00 | 0.00 | 0.00 | 62 | 1011.7 |
| 20260502044524 | 10 | 161 | 0.0 | 3.2 | 0.00 | 0.00 | 0.00 | 62 | 1011.7 |
| 20260502044008 | 10 | 124 | 0.0 | 3.2 | 0.00 | 0.00 | 0.00 | 61 | 1011.7 |
| 20260502043507 | 9 | 123 | 1.6 | 3.2 | 0.00 | 0.00 | 0.00 | 61 | 1011.7 |
| 20260502043026 | 9 | 134 | 0.0 | 3.2 | 0.00 | 0.00 | 0.00 | 61 | 1011.8 |
| 20260502042504 | 9 | 135 | 0.0 | 3.2 | 0.00 | 0.00 | 0.00 | 61 | 1011.8 |
| 20260502042003 | 9 | 140 | 0.0 | 3.2 | 0.00 | 0.00 | 0.00 | 61 | 1011.7 |
| 20260502041508 | 10 | 178 | 0.0 | 3.2 | 0.00 | 0.00 | 0.00 | 60 | 1011.7 |
| 20260502041004 | 10 | 182 | 0.0 | 3.2 | 0.00 | 0.00 | 0.00 | 60 | 1011.8 |
| 20260502040503 | 10 | 226 | 0.0 | 3.2 | 0.00 | 0.00 | 0.00 | 59 | 1011.8 |
| 20260502040016 | 10 | 226 | 0.0 | 3.2 | 0.00 | 0.00 | 0.00 | 58 | 1011.8 |
| 20260502035506 | 10 | 204 | 0.0 | 3.2 | 0.00 | 0.00 | 0.00 | 58 | 1011.9 |
| 20260502035006 | 10 | 213 | 0.0 | 0.0 | 0.00 | 0.00 | 0.00 | 57 | 1011.8 |
| 20260502034534 | 10 | 215 | 0.0 | 0.0 | 0.00 | 0.00 | 0.00 | 56 | 1011.8 |
| 20260502034004 | 10 | 229 | 0.0 | 0.0 | 0.00 | 0.00 | 0.00 | 55 | 1011.8 |
| 20260502033509 | 10 | 211 | 0.0 | 0.0 | 0.00 | 0.00 | 0.00 | 55 | 1011.8 |
| 20260502033030 | 10 | 211 | 0.0 | 0.0 | 0.00 | 0.00 | 0.00 | 55 | 1011.8 |
| 20260502032507 | 10 | 211 | 0.0 | 0.0 | 0.00 | 0.00 | 0.00 | 55 | 1011.8 |
| 20260502032010 | 10 | 211 | 0.0 | 1.6 | 0.00 | 0.00 | 0.00 | 54 | 1011.9 |
| 20260502031508 | 10 | 211 | 0.0 | 3.2 | 0.00 | 0.00 | 0.00 | 54 | 1011.9 |
| 20260502031004 | 10 | 232 | 1.6 | 3.2 | 0.00 | 0.00 | 0.00 | 53 | 1011.9 |
| 20260502030503 | 10 | 211 | 1.6 | 3.2 | 0.00 | 0.00 | 0.00 | 52 | 1011.9 |
| 20260502030012 | 10 | 203 | 0.0 | 3.2 | 0.00 | 0.00 | 0.00 | 52 | 1011.8 |
| 20260502025503 | 10 | 203 | 0.0 | 3.2 | 0.00 | 0.00 | 0.00 | 52 | 1011.8 |
| 20260502025003 | 10 | 203 | 0.0 | 3.2 | 0.00 | 0.00 | 0.00 | 51 | 1011.7 |
| 20260502024516 | 10 | 196 | 0.0 | 3.2 | 0.00 | 0.00 | 0.00 | 52 | 1011.7 |
| 20260502024007 | 10 | 167 | 0.0 | 3.2 | 0.00 | 0.00 | 0.00 | 52 | 1011.6 |
| 20260502023507 | 10 | 167 | 1.6 | 3.2 | 0.00 | 0.00 | 0.00 | 50 | 1011.6 |
| 20260502023020 | 10 | 180 | 0.0 | 3.2 | 0.00 | 0.00 | 0.00 | 51 | 1011.7 |
| 20260502022506 | 9 | 161 | 0.0 | 3.2 | 0.00 | 0.00 | 0.00 | 52 | 1011.7 |
| 20260502022007 | 10 | 178 | 1.6 | 3.2 | 0.00 | 0.00 | 0.00 | 52 | 1011.7 |
| 20260502021524 | 10 | 163 | 0.0 | 3.2 | 0.00 | 0.00 | 0.00 | 48 | 1011.6 |
| 20260502021008 | 10 | 142 | 0.0 | 0.0 | 0.00 | 0.00 | 0.00 | 48 | 1011.5 |
| 20260502020507 | 10 | 143 | 0.0 | 0.0 | 0.00 | 0.00 | 0.00 | 47 | 1011.5 |
| 20260502020008 | 10 | 143 | 0.0 | 0.0 | 0.00 | 0.00 | 0.00 | 47 | 1011.5 |
| 20260502015505 | 10 | 143 | 0.0 | 0.0 | 0.00 | 0.00 | 0.00 | 48 | 1011.5 |
| 20260502015009 | 10 | 143 | 0.0 | 0.0 | 0.00 | 0.00 | 0.00 | 47 | 1011.4 |
| 20260502014522 | 10 | 143 | 0.0 | 0.0 | 0.00 | 0.00 | 0.00 | 48 | 1011.4 |
| 20260502014004 | 10 | 143 | 0.0 | 0.0 | 0.00 | 0.00 | 0.00 | 48 | 1011.4 |
| 20260502013504 | 10 | 143 | 0.0 | 0.0 | 0.00 | 0.00 | 0.00 | 43 | 1011.3 |
| 20260502013016 | 10 | 143 | 0.0 | 0.0 | 0.00 | 0.00 | 0.00 | 44 | 1011.4 |
| 20260502012507 | 10 | 143 | 0.0 | 0.0 | 0.00 | 0.00 | 0.00 | 45 | 1011.4 |
| 20260502012009 | 10 | 143 | 0.0 | 0.0 | 0.00 | 0.00 | 0.00 | 46 | 1011.4 |
| 20260502011529 | 11 | 143 | 0.0 | 0.0 | 0.00 | 0.00 | 0.00 | 44 | 1011.4 |
| 20260502011008 | 11 | 143 | 0.0 | 0.0 | 0.00 | 0.00 | 0.00 | 43 | 1011.3 |
| 20260502010508 | 11 | 143 | 0.0 | 3.2 | 0.00 | 0.00 | 0.00 | 42 | 1011.2 |
| 20260502010023 | 11 | 143 | 0.0 | 3.2 | 0.00 | 0.00 | 0.00 | 42 | 1011.2 |
| 20260502005511 | 11 | 143 | 1.6 | 3.2 | 0.00 | 0.00 | 0.00 | 42 | 1011.1 |
| 20260502005010 | 11 | 150 | 1.6 | 3.2 | 0.00 | 0.00 | 0.00 | 41 | 1011.1 |
| 20260502004513 | 11 | 182 | 0.0 | 3.2 | 0.00 | 0.00 | 0.00 | 40 | 1011.1 |
| 20260502004007 | 12 | 205 | 1.6 | 3.2 | 0.00 | 0.00 | 0.00 | 41 | 1011.0 |
| 20260502003503 | 12 | 216 | 1.6 | 3.2 | 0.00 | 0.00 | 0.00 | 40 | 1011.0 |
| 20260502003022 | 12 | 219 | 0.0 | 3.2 | 0.00 | 0.00 | 0.00 | 36 | 1010.9 |
| 20260502002508 | 13 | 244 | 1.6 | 3.2 | 0.00 | 0.00 | 0.00 | 35 | 1010.9 |
| 20260502002011 | 13 | 240 | 1.6 | 3.2 | 0.00 | 0.00 | 0.00 | 35 | 1010.7 |
| 20260502001524 | 13 | 243 | 1.6 | 4.8 | 0.00 | 0.00 | 0.00 | 34 | 1010.5 |
| 20260502001007 | 13 | 249 | 1.6 | 4.8 | 0.00 | 0.00 | 0.00 | 34 | 1010.4 |
| 20260502000510 | 13 | 214 | 3.2 | 4.8 | 0.00 | 0.00 | 0.00 | 33 | 1010.4 |
| 20260502000029 | 13 | 236 | 1.6 | 4.8 | 0.00 | 0.00 | 0.00 | 34 | 1010.4 |
| 20260501235511 | 13 | 246 | 1.6 | 4.8 | 0.00 | 0.00 | 0.00 | 33 | 1010.4 |
| 20260501235007 | 13 | 244 | 1.6 | 6.4 | 0.00 | 0.00 | 0.00 | 33 | 1010.3 |
| 20260501234531 | 13 | 245 | 3.2 | 6.4 | 0.00 | 0.00 | 0.00 | 33 | 1010.2 |
| 20260501234009 | 13 | 263 | 1.6 | 4.8 | 0.00 | 0.00 | 0.00 | 32 | 1010.1 |
| 20260501233507 | 13 | 279 | 1.6 | 6.4 | 0.00 | 0.00 | 0.00 | 33 | 1010.0 |
| 20260501233013 | 14 | 238 | 1.6 | 6.4 | 0.00 | 0.00 | 0.00 | 33 | 1009.9 |
| 20260501232508 | 14 | 295 | 3.2 | 12.9 | 0.00 | 0.00 | 0.00 | 32 | 1009.9 |
| 20260501232005 | 15 | 268 | 4.8 | 12.9 | 0.00 | 0.00 | 0.00 | 31 | 1009.8 |
| 20260501231532 | 15 | 248 | 3.2 | 12.9 | 0.00 | 0.00 | 0.00 | 31 | 1009.8 |
| 20260501231007 | 15 | 246 | 4.8 | 9.7 | 0.00 | 0.00 | 0.00 | 32 | 1009.7 |
| 20260501230508 | 15 | 256 | 3.2 | 8.0 | 0.00 | 0.00 | 0.00 | 32 | 1009.7 |
| 20260501230024 | 15 | 270 | 1.6 | 6.4 | 0.00 | 0.00 | 0.00 | 34 | 1009.6 |
| 20260501225508 | 15 | 275 | 3.2 | 4.8 | 0.00 | 0.00 | 0.00 | 32 | 1009.6 |
| 20260501225007 | 15 | 236 | 1.6 | 4.8 | 0.00 | 0.00 | 0.00 | 32 | 1009.6 |
| 20260501224527 | 15 | 261 | 0.0 | 4.8 | 0.00 | 0.00 | 0.00 | 31 | 1009.5 |
| 20260501224006 | 15 | 289 | 3.2 | 4.8 | 0.00 | 0.00 | 0.00 | 32 | 1009.5 |
| 20260501223510 | 15 | 286 | 1.6 | 6.4 | 0.00 | 0.00 | 0.00 | 32 | 1009.5 |
| 20260501223028 | 15 | 297 | 3.2 | 9.7 | 0.00 | 0.00 | 0.00 | 33 | 1009.6 |
| 20260501222511 | 15 | 244 | 4.8 | 12.9 | 0.00 | 0.00 | 0.00 | 32 | 1009.6 |
| 20260501222008 | 15 | 211 | 3.2 | 12.9 | 0.00 | 0.00 | 0.00 | 31 | 1009.6 |
| 20260501221517 | 15 | 267 | 4.8 | 8.0 | 0.00 | 0.00 | 0.00 | 31 | 1009.6 |
| 20260501221008 | 15 | 290 | 3.2 | 8.0 | 0.00 | 0.00 | 0.00 | 32 | 1009.5 |
| 20260501220507 | 15 | 269 | 4.8 | 9.7 | 0.00 | 0.00 | 0.00 | 30 | 1009.5 |
| 20260501220022 | 15 | 207 | 3.2 | 11.3 | 0.00 | 0.00 | 0.00 | 31 | 1009.4 |
| 20260501215509 | 16 | 250 | 3.2 | 11.3 | 0.00 | 0.00 | 0.00 | 31 | 1009.5 |
| 20260501215007 | 16 | 272 | 6.4 | 12.9 | 0.00 | 0.00 | 0.00 | 31 | 1009.5 |
| 20260501214535 | 16 | 244 | 4.8 | 12.9 | 0.00 | 0.00 | 0.00 | 31 | 1009.4 |